{"data":{"norad_id":57904,"epoch":"2026-09-20T03:38:09.974112Z","epoch_age_seconds":164575,"freshness":"FRESH","line1":"1 57904U 23146P   26263.15150433 -.00000401  00000+0 -50250-5 0  9995","line2":"2 57904  43.0068 296.2468 0001525 268.9581  91.1096 15.27576902165739","mean_motion":15.27576902,"eccentricity":0.0001525,"inclination_deg":43.0068,"raan_deg":296.2468,"arg_perigee_deg":268.9581,"mean_anomaly_deg":91.1096,"bstar":-5.025e-6,"rev_number":16573,"period_min":94.266939891187,"perigee_km":482.01204028751,"apogee_km":484.10470487615,"semimajor_km":6861.1953725818,"source":"CELESTRAK","updated_at":"2026-09-21T09:00:33.723089Z"}}